www.pogodaiklimat.ru

Погода и климат >> Архив погоды >> Мексика >> Nueva Casas Grandes


ПОГОДА в Nueva Casas Grandes

  • Прогноз погоды в Nueva Casas Grandes
  • Монитор погоды в Nueva Casas Grandes
  • Климат города

АРХИВ ПОГОДЫ в Nueva Casas Grandes

Время (UTC), дата Ветер
(напр.,м/с)
 
Видим.   Явления Облачность Т
(С)
Тd
(С)
f
(%)
Тe
(С)
Тes
(С)
Комфортность P
(гПа)
Po
(гПа)
Тmin
(С)
Tmax
(С)
R
(мм)
R24
(мм)
S
(см)
03 13.11 штиль 0 2000 м ясно +14.0 +10.7 80 +14 +14 1005.8 850.9
09 13.11 штиль 0 6000 м ясно +8.6 +7.5 93 +8 +8 1010.4 851.9
12 13.11 штиль 0 6000 м ясно +7.0 +6.6 97 +6 +6 1012.9 851.8 +6.2 +27.8
15 13.11 штиль 0 20 км 9/0
[Ci]
+9.0 +6.5 84 +8 +9 1015.6 853.1
18 13.11 штиль 0 20 км 6/0
[Ci]
+20.4 +12.7 61 +22 +32 комфорт 1014.9 853.3 +6.2 +21.2
21 13.11 СЗ 1 20 км 9/0
[Cs]
+26.0 +13.8 47 +28 +35 жарко 1009.5 850.7
00 14.11 штиль 0 20 км 6/0
[Cs]
+22.4 +16.0 67 +27 +27 душно 1006.5 850.2 +6.2 +26.6
03 14.11 штиль 0 2000 м ясно +13.5 +10.7 83 +13 +13 1006.7 851.3
06 14.11 штиль 0 2000 м ясно +11.4 +8.3 81 +11 +11 1008.3 852.0 +6.6 +26.2
09 14.11 штиль 0 6000 м ясно +8.8 +7.0 88 +8 +8 1009.9 851.5
12 14.11 штиль 0 6000 м ясно +7.2 +6.8 97 +6 +6 1012.0 851.2 +6.2 +26.6
15 14.11 штиль 0 20 км 1/0 1500 м
[Ac trans]
+8.8 +6.2 84 +8 +9 1014.3 852.3
18 14.11 ЮЗ 1 20 км 5/0
[Ci]
+22.4 +11.5 50 +25 +33 комфорт 1012.4 851.6 +6.3 +23.2
21 14.11 З 1 20 км 4/0 2000 м
[Ac lent]
+27.4 +12.6 40 +29 +34 жарко 1006.4 848.7
00 15.11 штиль 0 20 км 4/0 2000 м
[Ac lent]
+22.6 +13.9 58 +26 +26 жарко 1002.3 847.4 +6.3 +28.0
03 15.11 штиль 0 2000 м ясно +13.0 +8.4 74 +13 +13 1002.7 848.5
06 15.11 штиль 0 2000 м ясно +10.1 +6.1 76 +10 +10 1004.7 849.2 +7.0 +28.0
09 15.11 штиль 0 6000 м ясно +8.0 +5.8 86 +7 +7 1007.4 849.4
12 15.11 штиль 0 6000 м ясно +6.4 +5.7 95 +5 +5 1010.4 849.6 +5.2 +28.0
15 15.11 штиль 0 20 км 3/0
[Ci sp]
+9.4 +3.2 65 +9 +10 1013.5 851.2
18 15.11 Ю 1 20 км 1/0
[Ci sp]
+22.4 +9.1 43 +24 +33 комфорт 1012.2 851.1 +4.6 +23.5
21 15.11 Ю 1 20 км 5/0
[Cs]
+25.8 +13.6 47 +28 +35 жарко 1006.6 848.5
00 16.11 штиль 0 20 км 5/0 2000 м
[Ac trans Ci sp]
+21.8 +14.0 61 +25 +25 комфорт 1003.6 848.0 +4.6 +27.4
03 16.11 штиль 0 2000 м ясно +12.4 +9.0 80 +12 +12 1004.2 849.4
06 16.11 штиль 0 2000 м ясно +10.0 +7.2 83 +9 +9 1005.9 849.9 +5.6 +27.4
12 16.11 штиль 0 6000 м ясно +6.4 +4.5 88 +5 +5 1011.0 849.9 +5.0 +27.4
15 16.11 штиль 0 20 км ясно +7.0 +5.9 93 +6 +7 1013.0 850.6
18 16.11 штиль 0 20 км ясно +21.0 +13.4 62 +23 +34 комфорт 1011.8 850.4 +5.0 +21.2
21 16.11 З 2 20 км ясно +27.4 +11.9 38 +29 +35 жарко 1005.6 847.4
00 17.11 штиль 0 20 км ясно +24.4 +12.9 49 +26 +27 жарко 1002.5 847.1 +5.0 +28.5
03 17.11 штиль 0 2000 м ясно +17.0 +10.9 67 +17 +17 1003.1 848.8
09 17.11 штиль 0 6000 м ясно +6.8 +5.3 90 +6 +6 1007.4 849.5
12 17.11 штиль 0 6000 м ясно +5.6 +4.8 95 +4 +4 1010.9 850.0 +5.2 +28.5
15 17.11 Ю 1 20 км 6/0
[Ci]
+8.4 +3.8 73 +8 +9 1013.1 850.6
18 17.11 штиль 0 20 км 6/0
[Ci]
+22.0 +11.4 51 +24 +33 комфорт 1011.1 849.8 +4.8 +23.0
21 17.11 З 3 20 км 6/0
[Ci]
+26.4 +11.3 39 +28 +32 жарко 1004.7 846.7
00 18.11 З 1 20 км 5/0
[Cs]
+24.2 +11.5 45 +26 +26 жарко 1001.3 846.2 +4.8 +27.5
12 18.11 штиль 0 6000 м ясно +7.8 +5.6 86 +7 +7 1007.2 849.3 +6.2 +27.5
15 18.11 штиль 0 20 км 4/0
[Ci]
+7.6 +6.1 90 +7 +8 1012.2 851.5
18 18.11 штиль 0 20 км 6/0
[Ci]
+18.8 +14.9 78 +20 +29 1012.5 851.6 +6.0 +19.6
21 18.11 СЗ 1 20 км 4/0
[Cs]
+21.4 +10.2 49 +23 +30 комфорт 1008.9 849.7
00 19.11 В 1 20 км 3/0
[Ci sp]
+19.6 +11.4 59 +22 +22 комфорт 1006.8 849.3 +6.0 +22.2
12 19.11 штиль 0 6000 м ясно +5.2 +1.9 79 +4 +4 1010.8 851.5 +4.0 +22.2
15 19.11 штиль 0 20 км 6/0 2000 м
[As trans Ci fib]
+4.4 +1.9 84 +3 +4 1013.9 852.2
18 19.11 Ю 1 20 км 1/0 2000 м
[Ac trans]
+13.4 +5.5 59 +14 +22 1014.2 851.8 +3.0 +14.0
21 19.11 Ю 1 20 км ясно +16.5 +7.9 57 +17 +25 1006.8 848.9
00 20.11 штиль 0 20 км ясно +15.5 +8.6 63 +15 +15 1007.7 847.9 +3.0 +17.6

 

Местоположение метеостанции Nueva Casas Grandes (Мексика): широта 30.37 долгота -107.90 высота над уровнем моря 1487 м.

В архиве по умолчанию представлена погода в Nueva Casas Grandes за последнюю неделю. Архивные данные за месяц целиком и за предыдущие месяцы, начиная с января 2011 года, Вы можете получить, выбрав интересующий диапазон дат из раскрывающегося списка и нажав кнопку "Ввод!".

Внимание! Время в таблицах - всемирное. Для получения местного времени необходимо прибавить поправку, которая в Nueva Casas Grandes равна -7 ч.

Смотрите также архив погоды в соседних городах и на ближайших метеорологических станциях:

Погода в Temosachic (Мексика) (158 км)
Погода в Pilares de Nacoz (Мексика) (171 км)
Погода в Chihuahua (Мексика) (256 км)
Погода в Chihuahua University (Мексика) (267 км)
Погода в Hermosillo la Magna (Мексика) (328 км)
Погода в Hermosillo (Мексика) (336 км)
Погода в Altar Son (Мексика) (379 км)
Погода в Ciudad Obregon (Мексика) (381 км)
Погода в Empalme (Мексика) (383 км)
Погода в Guaymas (Мексика) (398 км)

Пояснения к столбцам:

Ветер - указаны скорость ветра в м/с - средняя за 10 мин, порывы в срок и между сроками (в фигурных скобках) и направление, откуда дует ветер: С - северный, СВ - северо-восточный, В - восточный, ЮВ - юго-восточный, Ю - южный, ЮЗ - юго-западный, З - западный, СЗ - северо-западный.
Видимость - горизонтальная дальность видимости в метрах или километрах. При видимости от 1 до 10 км при отсутствии осадков обычно наблюдается дымка, при ухудшении видимости до 1 км и менее - туман. В сухую погоду видимость может ухудшаться дымом, пылью или мглою.
Явления - указаны атмосферные явления, наблюдавшиеся в срок или в последний час перед сроком; фигурными скобками обозначены явления, наблюдавшиеся между сроками (за 1-3 часа до срока); квадратными скобками обозначены град или гололедные отложения с указанием их диаметра в мм.
Облачность - указаны через наклонную черту общая и нижняя облачность в баллах и высота нижней границы облаков в метрах; квадратными скобками обозначены формы облаков: Ci - перистые, Cs - перисто-слоистые, Cc - перисто-кучевые, Ac - высококучевые, As - высокослоистые, Sc - слоисто-кучевые, Ns - слоисто-дождевые, Cu - кучевые, Cb - кучево-дождевые. Подробнее классификацию облаков см. в Атласе облаков (PDF).
T - Температура воздуха - температура, измеренная на высоте 2 м над землей.
Td - Температура точки росы - температура, при понижении до которой содержащийся в воздухе водяной пар достигнет насыщения.
f - Относительная влажность воздуха - влажноcть воздуха, измеренная на высоте 2 м над землей.
Te - Эффективная температура - температура, которую ощущает одетый по сезону человек в тени. Характеристика душности погоды. При расчете учитывается влияние влажности воздуха и скорости ветра на теплоощущения человека.
Tes - Эффективная температура на солнце - температура, которую ощущает человек, с поправкой на солнечный нагрев. Характеристика знойности погоды. Зависит от высоты солнца над горизонтом, облачности и скорости ветра. Ночью, в пасмурную погоду, а также при ветре 12 м/с и более поправка равна нулю.
P - Атмосферное давление - приведенное к уровню моря атмосферное давление.
Po - Атмосферное давление - измеренное на уровне метеостанции атмосферное давление.
Tmin - Минимальная температура - минимум температуры воздуха на высоте 2 м над землей.
Tmax - Максимальная температура - максимум температуры воздуха на высоте 2 м над землей.
R - Количество осадков - Количество выпавших осадков за период времени, мм. При наведении курсора мыши на число - период времени, за который выпало указанное количество осадков.
R24 - Количество осадков - Количество выпавших осадков за 24 часа, мм.
S - Снежный покров - Высота снежного покрова, см. При наведении курсора мыши на число - состояние снежного покрова и степень покрытия местности в баллах.